Terug naar catalogus

FENGYUN 1C DEB

LostPO
NORAD 31956·DEBRIS·🇨🇳 China

Gelanceerd May 10, 1999 vanaf Taiyuan Satellite Launch Center

Loading…

Volgende Passages (komende 24 uur)

TLE

VerouderdSource: Space-Track

Epoch: Sep 20, 2022, 13:52 UTC

1 31956U 99025CNH 22263.57839391  .00003273  00000-0  12828-2 0  9997
2 31956  99.4987  24.4296 0038625 347.1543  12.8649 14.29806350801816

Volg FENGYUN 1C DEB in realtime met AllMySat

Download on the App Store